Temp
-7 -6 -6 -6 -6 -6 -6 -6 -6 -6 -6 -6 -6 -6 -6 -6 -6 -6 -6 -6 -7 -7 -7 -7 -7 -7 -7 -7 -7 -6 -7 -7 -8 -9 -8 -8 -8 -9 -9 -9 -9 -9 -9 -9 -8
-7 -7 -6 -6 -6 -6 -6 -6 -6 -6 -6 -6 -6 -6 -6 -6 -6 -6 -6 -7 -7 -7 -7 -7 -7 -7 -7 -7 -7 -7 -7 -8 -8 -8 -9 -8 -7 -9 -10 -10 -9 -9 -9 -9 -8
-7 -7 -7 -6 -6 -6 -6 -6 -6 -6 -6 -6 -6 -6 -6 -6 -7 -7 -7 -7 -7 -7 -7 -7 -7 -7 -7 -7 -7 -7 -7 -7 -8 -8 -8 -8 -7 -7 -10 -9 -9 -9 -8 -9 -8
-7 -7 -7 -7 -6 -6 -6 -6 -6 -6 -6 -6 -7 -7 -7 -7 -7 -7 -7 -7 -7 -7 -7 -7 -7 -7 -7 -7 -7 -7 -7 -7 -7 -7 -7 -7 -8 -8 -8 -9 -9 -9 -9 -8 -7
-7 -7 -7 -7 -7 -7 -7 -7 -7 -7 -7 -7 -7 -7 -7 -7 -7 -7 -7 -7 -7 -7 -7 -7 -7 -7 -7 -7 -7 -7 -7 -7 -7 -7 -7 -8 -8 -8 -8 -8 -8 -9 -9 -8 -7
-7 -7 -7 -7 -7 -7 -7 -7 -7 -7 -7 -7 -7 -7 -7 -7 -7 -7 -7 -7 -7 -7 -7 -7 -7 -7 -7 -7 -7 -7 -7 -7 -7 -7 -7 -7 -8 -8 -8 -9 -9 -9 -9 -8 -8
-7 -7 -7 -7 -7 -7 -7 -7 -7 -7 -7 -7 -7 -8 -8 -7 -7 -7 -7 -7 -7 -7 -7 -7 -7 -7 -7 -7 -7 -7 -7 -7 -7 -8 -8 -7 -7 -8 -8 -8 -8 -8 -8 -8 -8
-7 -7 -7 -7 -7 -7 -7 -7 -7 -7 -7 -8 -8 -8 -8 -7 -7 -7 -7 -7 -7 -7 -7 -7 -7 -7 -7 -7 -7 -7 -7 -7 -7 -7 -7 -7 -7 -8 -8 -8 -8 -8 -8 -8 -8
-8 -7 -7 -7 -7 -7 -7 -7 -7 -7 -7 -7 -8 -7 -7 -8 -7 -7 -7 -7 -7 -7 -7 -7 -7 -7 -7 -7 -7 -7 -7 -7 -7 -7 -7 -7 -6 -7 -8 -8 -8 -8 -9 -9 -8
-8 -8 -7 -7 -7 -7 -7 -7 -7 -7 -7 -7 -7 -7 -7 -7 -7 -7 -7 -7 -7 -7 -7 -7 -7 -7 -7 -7 -7 -7 -7 -7 -7 -8 -7 -7 -7 -7 -7 -8 -8 -10 -9 -8 -8
-8 -8 -8 -7 -7 -7 -7 -6 -6 -6 -6 -7 -7 -7 -7 -7 -7 -6 -7 -7 -7 -7 -7 -7 -7 -7 -7 -7 -7 -7 -8 -8 -8 -8 -8 -7 -7 -7 -8 -8 -8 -10 -10 -9 -8
-8 -8 -8 -7 -7 -7 -7 -7 -7 -7 -6 -6 -7 -6 -6 -6 -7 -7 -7 -7 -7 -7 -7 -7 -7 -7 -7 -8 -8 -8 -8 -8 -8 -9 -9 -8 -8 -8 -10 -10 -10 -12 -11 -11 -10
-8 -8 -8 -7 -7 -7 -7 -7 -6 -6 -6 -6 -6 -7 -6 -6 -7 -7 -7 -7 -7 -7 -7 -7 -8 -8 -8 -8 -8 -8 -8 -8 -8 -8 -8 -9 -8 -10 -11 -11 -11 -11 -11 -11 -10
-8 -8 -8 -8 -7 -7 -7 -7 -7 -7 -7 -7 -7 -7 -7 -7 -7 -7 -7 -7 -8 -8 -7 -8 -8 -8 -8 -8 -9 -8 -9 -9 -8 -8 -9 -10 -8 -10 -10 -11 -11 -12 -11 -11 -11
-8 -8 -8 -8 -8 -8 -8 -7 -7 -7 -7 -7 -7 -7 -8 -8 -8 -7 -8 -8 -8 -8 -7 -8 -8 -8 -8 -9 -9 -9 -9 -9 -9 -8 -9 -10 -9 -9 -10 -10 -11 -11 -11 -11 -12
-9 -8 -8 -8 -8 -8 -8 -8 -8 -8 -8 -8 -7 -7 -8 -8 -8 -8 -8 -8 -8 -8 -8 -9 -9 -9 -9 -9 -9 -9 -9 -9 -10 -10 -10 -11 -11 -10 -11 -11 -11 -12 -12 -12 -11
-9 -9 -9 -9 -9 -8 -8 -8 -8 -8 -8 -8 -8 -7 -8 -8 -8 -8 -8 -8 -8 -8 -8 -9 -9 -10 -9 -9 -10 -11 -11 -11 -11 -11 -11 -12 -12 -13 -12 -12 -11 -12 -13 -12 -11
-9 -9 -9 -9 -9 -9 -9 -9 -9 -9 -9 -9 -8 -8 -8 -9 -9 -8 -8 -8 -8 -8 -9 -9 -9 -10 -10 -10 -11 -11 -11 -12 -12 -11 -11 -12 -13 -14 -14 -13 -13 -13 -13 -13 -13
-9 -9 -9 -9 -9 -9 -9 -9 -10 -10 -9 -9 -10 -9 -9 -10 -9 -10 -10 -10 -10 -9 -9 -9 -10 -11 -11 -11 -11 -12 -13 -13 -13 -12 -11 -11 -11 -13 -13 -14 -14 -13 -13 -13 -13
-10 -10 -9 -9 -9 -9 -10 -10 -10 -10 -10 -10 -10 -10 -10 -10 -11 -10 -10 -11 -10 -10 -10 -10 -11 -11 -12 -12 -12 -13 -13 -13 -13 -13 -12 -11 -12 -13 -14 -14 -14 -14 -14 -14 -13
-10 -10 -10 -10 -10 -10 -10 -10 -10 -10 -10 -10 -11 -11 -11 -11 -11 -11 -11 -11 -11 -11 -11 -11 -11 -12 -13 -13 -13 -14 -14 -13 -13 -13 -13 -12 -12 -13 -14 -14 -14 -14 -14 -14 -14
-10 -10 -10 -10 -10 -10 -11 -11 -12 -11 -11 -11 -12 -12 -12 -12 -11 -11 -12 -12 -12 -12 -12 -12 -12 -12 -12 -13 -13 -13 -14 -14 -14 -14 -14 -14 -12 -14 -14 -15 -14 -14 -15 -14 -14
-12 -11 -11 -11 -11 -11 -11 -12 -12 -12 -12 -12 -12 -12 -12 -12 -12 -12 -12 -13 -13 -13 -13 -13 -13 -13 -12 -12 -12 -13 -13 -14 -14 -14 -14 -14 -13 -14 -15 -15 -15 -15 -15 -15 -14
-12 -12 -12 -12 -12 -12 -12 -13 -13 -13 -13 -13 -13 -13 -13 -13 -13 -12 -12 -13 -14 -13 -13 -13 -13 -13 -13 -13 -13 -13 -13 -14 -14 -14 -14 -14 -15 -15 -15 -16 -15 -15 -15 -15 -15
-12 -12 -13 -13 -13 -12 -12 -13 -14 -14 -14 -14 -14 -14 -13 -13 -14 -14 -13 -13 -14 -14 -14 -13 -13 -13 -13 -13 -14 -14 -14 -15 -15 -15 -14 -14 -15 -16 -16 -16 -16 -15 -15 -15 -16
-13 -13 -13 -13 -13 -13 -14 -13 -13 -13 -13 -14 -14 -15 -15 -15 -14 -14 -14 -14 -14 -14 -14 -14 -14 -14 -13 -14 -15 -14 -14 -15 -15 -15 -15 -15 -14 -15 -16 -16 -16 -16 -16 -16 -16
-13 -12 -12 -13 -14 -14 -14 -14 -14 -13 -14 -14 -14 -15 -15 -15 -15 -15 -14 -14 -14 -14 -15 -14 -15 -14 -14 -15 -15 -14 -15 -16 -16 -17 -16 -15 -15 -16 -16 -17 -17 -17 -16 -16 -16
Height
5894 5895 5896 5897 5897 5898 5898 5899 5900 5901 5901 5902 5903 5903 5903 5904 5904 5904 5905 5906 5906 5907 5908 5909 5909 5910 5912 5913 5915 5917 5921 5924 5925 5923 5922 5921 5920 5922 5921 5922 5921 5918 5918 5918 5923
5893 5894 5894 5895 5896 5896 5897 5898 5899 5899 5900 5901 5901 5902 5902 5903 5904 5904 5905 5905 5906 5906 5907 5908 5909 5909 5910 5912 5914 5916 5919 5922 5922 5920 5921 5919 5919 5919 5921 5917 5914 5916 5917 5916 5916
5892 5893 5893 5894 5894 5895 5896 5896 5897 5898 5898 5899 5900 5900 5901 5902 5903 5903 5904 5904 5905 5905 5907 5908 5908 5909 5910 5911 5913 5914 5916 5917 5918 5917 5918 5917 5918 5916 5917 5915 5912 5914 5915 5914 5914
5891 5891 5892 5893 5893 5894 5894 5895 5895 5896 5897 5898 5899 5899 5899 5900 5902 5901 5902 5903 5904 5904 5905 5906 5907 5908 5909 5910 5910 5912 5913 5914 5914 5915 5916 5916 5917 5915 5913 5913 5911 5911 5910 5911 5912
5889 5889 5890 5890 5891 5892 5892 5893 5894 5894 5895 5896 5896 5897 5897 5898 5899 5899 5900 5901 5902 5903 5904 5905 5905 5905 5906 5908 5909 5910 5911 5911 5911 5912 5913 5914 5914 5911 5912 5909 5908 5908 5908 5907 5910
5887 5887 5887 5888 5889 5889 5890 5890 5891 5891 5892 5893 5894 5894 5895 5896 5896 5897 5898 5900 5901 5902 5902 5903 5903 5904 5905 5906 5907 5907 5909 5910 5909 5909 5909 5911 5911 5908 5909 5906 5906 5905 5905 5904 5908
5885 5885 5885 5886 5886 5887 5887 5888 5888 5889 5890 5891 5892 5893 5894 5895 5896 5897 5898 5899 5900 5901 5901 5902 5902 5903 5904 5904 5905 5905 5907 5908 5908 5907 5907 5905 5907 5908 5906 5899 5902 5902 5901 5900 5902
5883 5883 5883 5883 5884 5884 5885 5886 5887 5887 5888 5890 5891 5892 5893 5894 5895 5896 5897 5898 5899 5899 5899 5900 5900 5901 5902 5902 5902 5903 5903 5903 5902 5901 5900 5900 5903 5902 5901 5899 5894 5895 5895 5895 5894
5882 5882 5881 5881 5882 5882 5883 5884 5885 5885 5887 5888 5890 5891 5892 5893 5893 5894 5894 5895 5895 5896 5896 5895 5896 5897 5897 5897 5897 5896 5897 5896 5896 5895 5894 5894 5896 5896 5895 5892 5891 5888 5889 5887 5886
5881 5881 5881 5880 5881 5881 5881 5882 5883 5884 5885 5886 5887 5889 5889 5890 5890 5891 5890 5890 5891 5891 5891 5890 5891 5892 5891 5890 5891 5889 5888 5889 5889 5889 5885 5887 5889 5888 5889 5887 5886 5882 5881 5881 5881
5881 5880 5880 5880 5879 5880 5881 5881 5883 5883 5882 5884 5885 5885 5886 5886 5886 5886 5888 5887 5886 5886 5885 5883 5886 5885 5883 5883 5883 5882 5881 5881 5882 5882 5880 5879 5881 5881 5879 5879 5877 5877 5874 5874 5874
5879 5879 5878 5878 5878 5878 5879 5879 5880 5881 5880 5880 5881 5881 5881 5881 5882 5881 5881 5882 5880 5880 5879 5879 5880 5877 5876 5875 5874 5873 5873 5873 5874 5874 5871 5871 5872 5873 5872 5871 5870 5872 5868 5868 5869
5876 5876 5876 5875 5876 5876 5876 5877 5877 5877 5878 5878 5877 5877 5876 5877 5877 5876 5876 5874 5874 5873 5871 5873 5872 5870 5869 5867 5867 5866 5866 5865 5864 5865 5863 5861 5864 5865 5867 5863 5859 5859 5861 5862 5864
5873 5873 5872 5872 5874 5873 5873 5873 5873 5873 5874 5874 5873 5872 5871 5871 5871 5870 5870 5869 5868 5867 5865 5868 5864 5864 5862 5861 5861 5858 5858 5856 5856 5855 5855 5854 5853 5858 5856 5855 5853 5854 5854 5856 5857
5869 5869 5868 5868 5868 5869 5868 5868 5868 5868 5868 5869 5867 5867 5866 5865 5865 5863 5864 5862 5861 5860 5859 5860 5859 5857 5856 5855 5852 5850 5850 5847 5847 5847 5846 5843 5846 5847 5845 5846 5847 5845 5847 5848 5848
5863 5863 5864 5863 5863 5863 5863 5862 5863 5863 5859 5860 5860 5859 5860 5857 5857 5856 5855 5855 5854 5852 5850 5852 5849 5849 5847 5844 5844 5843 5842 5840 5839 5838 5837 5833 5837 5837 5836 5834 5837 5838 5836 5832 5828
5857 5857 5857 5857 5857 5856 5856 5856 5856 5853 5850 5848 5851 5853 5854 5851 5849 5846 5847 5846 5846 5843 5843 5841 5842 5842 5837 5837 5837 5835 5834 5831 5831 5829 5829 5828 5828 5827 5825 5823 5825 5827 5826 5822 5819
5850 5850 5848 5849 5848 5848 5848 5849 5848 5844 5843 5840 5839 5840 5843 5843 5840 5837 5835 5836 5836 5835 5832 5832 5833 5834 5830 5830 5829 5827 5826 5824 5818 5819 5820 5820 5818 5820 5816 5815 5814 5815 5815 5813 5808
5842 5841 5840 5839 5839 5839 5839 5839 5838 5835 5834 5834 5834 5831 5830 5831 5831 5830 5828 5827 5825 5823 5823 5820 5820 5820 5819 5820 5821 5818 5816 5813 5811 5810 5808 5808 5810 5811 5809 5807 5806 5803 5800 5801 5798
5831 5832 5830 5829 5829 5829 5829 5828 5825 5826 5826 5826 5825 5823 5823 5822 5820 5818 5820 5818 5817 5815 5814 5812 5812 5812 5811 5811 5809 5808 5805 5803 5803 5799 5797 5796 5796 5797 5798 5797 5794 5792 5786 5786 5784
5824 5822 5821 5821 5819 5818 5818 5817 5815 5814 5814 5816 5816 5813 5811 5810 5810 5810 5807 5808 5805 5803 5802 5802 5802 5803 5804 5803 5800 5798 5794 5791 5790 5789 5786 5786 5786 5787 5785 5781 5779 5777 5777 5775 5773
5813 5811 5811 5809 5808 5808 5807 5806 5804 5799 5800 5802 5803 5801 5798 5798 5798 5798 5798 5796 5795 5793 5790 5789 5789 5788 5788 5790 5790 5785 5784 5782 5778 5777 5775 5774 5774 5774 5772 5769 5766 5763 5759 5761 5760
5804 5801 5799 5797 5796 5794 5793 5792 5791 5790 5789 5784 5784 5786 5785 5785 5784 5784 5785 5787 5784 5782 5780 5780 5777 5776 5775 5777 5776 5774 5773 5771 5768 5766 5764 5763 5764 5761 5760 5758 5756 5754 5751 5748 5749
5797 5794 5789 5787 5786 5784 5782 5780 5778 5775 5776 5774 5770 5768 5769 5771 5772 5771 5773 5773 5771 5770 5769 5769 5768 5769 5767 5766 5764 5762 5761 5758 5755 5754 5754 5751 5753 5751 5749 5747 5745 5742 5740 5741 5741
5785 5783 5781 5778 5772 5770 5770 5770 5767 5762 5758 5760 5761 5758 5755 5755 5757 5757 5756 5757 5758 5757 5756 5755 5755 5755 5755 5754 5752 5751 5749 5745 5744 5744 5742 5743 5739 5740 5739 5737 5737 5731 5730 5731 5733
5772 5770 5767 5765 5763 5760 5756 5752 5750 5751 5749 5749 5743 5743 5742 5740 5740 5742 5743 5744 5744 5742 5741 5741 5741 5740 5740 5741 5740 5738 5737 5735 5734 5732 5731 5730 5729 5726 5729 5729 5725 5722 5721 5719 5718
5758 5755 5754 5753 5748 5744 5741 5739 5736 5733 5735 5731 5731 5730 5729 5727 5724 5723 5724 5727 5729 5728 5726 5727 5726 5725 5726 5726 5725 5726 5729 5728 5725 5722 5721 5719 5719 5718 5718 5717 5717 5714 5712 5711 5710
Wind_Speed
6 7 7 7 6 6 6 6 5 5 4 4 4 4 4 3 4 5 6 7 7 6 7 8 9 11 12 13 13 9 9 16 26 20 20 21 19 7 14 17 23 26 31 32 24
3 4 5 5 5 5 5 5 5 5 4 4 4 4 5 5 5 5 6 7 7 7 6 7 7 8 11 11 11 9 10 14 30 28 24 28 28 13 15 23 27 23 27 37 35
3 3 3 3 4 5 5 5 6 5 5 5 5 5 6 6 7 7 7 7 7 6 4 6 5 5 7 7 7 8 12 21 30 35 32 32 29 24 21 28 32 28 27 33 34
7 7 7 7 7 7 7 6 7 7 7 6 5 5 6 7 7 8 7 8 8 6 6 6 6 5 5 8 7 9 13 16 24 26 26 28 20 22 20 26 32 28 31 31 31
9 9 9 9 10 10 9 9 9 9 8 8 7 7 8 8 8 8 8 8 7 5 7 7 7 6 7 8 6 8 11 12 17 17 12 15 20 19 26 27 28 29 30 34 27
9 10 10 11 11 11 11 11 10 9 9 8 7 7 8 8 7 7 7 7 7 7 7 6 5 5 5 6 7 5 9 12 13 13 12 14 14 18 19 29 31 33 33 37 30
7 7 9 9 11 11 11 10 10 10 9 8 9 10 10 10 9 8 9 9 9 8 5 3 2 1 4 6 5 5 4 4 6 12 13 17 13 16 19 27 25 26 30 32 30
6 6 7 7 9 9 9 9 8 8 8 9 10 12 12 10 9 8 8 8 8 7 7 6 6 7 10 12 12 10 10 10 14 15 17 18 12 16 20 25 30 29 32 31 35
3 3 4 5 6 7 7 7 6 6 8 10 11 10 10 12 9 9 10 9 11 12 14 15 16 17 19 19 19 21 19 20 20 22 24 26 23 20 23 24 27 29 32 34 40
1 2 3 4 5 6 6 6 6 6 7 9 9 10 12 12 14 14 14 15 16 17 19 22 23 22 22 25 22 25 27 27 26 25 31 30 29 28 24 25 25 26 31 35 38
4 3 3 3 3 4 4 6 6 5 6 6 8 8 11 12 15 15 16 17 18 18 21 25 23 23 27 28 28 28 29 29 27 30 33 33 31 30 29 33 31 29 30 36 38
6 6 6 6 5 5 5 6 5 7 7 6 9 11 13 14 15 18 18 19 19 19 22 23 19 24 25 26 28 30 31 31 30 30 35 33 32 31 32 34 29 23 28 35 40
10 9 9 8 7 8 8 9 10 10 11 11 14 14 16 17 16 18 18 21 22 21 23 21 22 23 24 25 26 27 29 29 31 30 31 33 32 34 34 31 35 35 30 32 40
14 15 13 12 11 11 12 13 13 14 16 17 17 16 18 19 19 21 20 21 21 21 24 19 24 24 25 26 26 29 27 30 31 31 32 30 34 30 38 44 39 35 34 34 40
18 18 19 18 17 16 17 17 17 18 21 21 20 19 20 23 23 24 23 22 23 25 27 22 22 26 28 24 26 29 28 32 34 34 34 37 35 32 30 35 50 51 44 41 41
22 22 21 22 22 21 20 20 21 22 25 25 24 26 23 25 26 25 26 26 26 28 29 23 28 28 27 31 31 32 33 33 34 35 37 39 35 33 33 35 35 39 43 44 38
26 24 24 23 24 26 24 24 24 26 30 32 29 28 24 26 28 30 29 29 28 31 30 31 29 27 33 32 27 27 31 34 36 36 38 37 39 40 39 40 40 39 48 52 53
29 29 29 28 29 28 29 28 27 31 33 35 35 33 28 26 32 34 35 34 33 34 36 37 36 28 33 30 30 29 30 30 38 40 40 39 40 44 45 44 42 42 47 51 56
29 30 32 32 32 31 31 31 31 35 37 37 34 35 35 32 34 33 34 36 36 40 41 41 40 33 34 30 28 31 34 36 39 41 43 44 40 41 45 46 49 53 57 54 54
29 28 32 35 35 35 34 32 35 38 40 39 38 39 37 36 37 39 37 40 41 42 42 43 40 36 34 34 35 36 40 41 39 43 45 44 41 40 42 42 50 48 57 50 49
31 32 32 33 35 37 36 35 39 40 41 39 37 38 40 42 41 40 44 42 42 43 44 44 43 41 37 36 38 38 42 44 42 42 43 43 42 41 41 46 41 50 52 50 58
34 34 32 33 37 36 36 34 36 42 42 39 36 39 44 45 45 43 43 43 43 43 46 47 47 46 46 42 40 41 41 42 44 45 44 43 45 41 43 45 47 47 51 51 56
29 32 34 36 36 38 37 39 40 40 41 45 45 45 45 46 46 45 44 41 44 47 48 48 50 49 50 47 45 44 43 42 44 43 45 44 41 39 41 42 42 43 45 45 45
30 30 34 35 33 34 35 38 41 45 45 46 50 49 49 46 46 48 46 44 45 48 49 49 49 49 49 48 47 46 43 44 45 44 42 43 38 38 40 42 42 46 46 42 41
35 35 33 32 37 37 37 36 38 43 47 47 47 49 51 51 46 46 49 47 45 46 48 50 50 49 47 46 45 43 42 42 42 42 42 40 41 39 37 39 37 42 40 37 29
43 42 41 40 41 42 42 44 45 43 45 45 49 49 50 53 53 50 48 47 46 47 48 49 49 49 50 45 42 44 42 39 40 40 42 42 42 39 32 32 34 34 33 32 30
46 46 45 45 45 46 45 47 49 51 48 50 49 48 48 50 53 55 54 52 51 50 49 49 47 49 49 45 45 47 40 35 36 37 40 42 39 38 34 33 31 34 35 36 34
Wind_Direction
224 224 227 229 228 226 220 219 222 225 225 212 201 195 180 173 171 175 180 190 188 195 194 197 207 217 219 217 219 208 198 191 177 189 208 212 202 188 272 270 275 287 287 280 277
239 231 229 225 222 220 222 224 222 223 216 204 206 206 202 196 190 195 188 183 192 178 205 211 207 209 219 221 224 215 187 183 188 205 207 222 233 213 239 266 273 284 283 277 281
252 248 228 225 223 222 224 224 227 219 219 213 204 196 206 203 201 200 205 199 203 182 199 212 212 225 243 226 220 205 195 198 198 211 217 236 255 255 239 263 274 286 276 275 282
257 258 252 247 246 244 241 236 235 226 218 213 213 214 208 204 207 203 211 217 213 204 219 223 218 207 222 238 230 214 214 213 222 230 236 247 274 277 260 255 267 286 295 286 288
244 244 246 246 244 242 241 237 233 233 230 225 221 219 225 221 215 216 209 212 206 212 219 222 222 224 237 244 252 251 245 239 238 238 250 256 267 278 257 266 273 279 287 287 297
236 233 236 238 237 234 232 229 225 224 223 219 209 199 199 196 190 191 199 207 208 206 200 192 204 209 233 252 243 247 266 261 268 280 274 265 260 273 278 260 270 278 278 277 290
242 234 232 233 232 231 228 225 220 217 216 208 179 164 163 162 157 151 158 163 167 162 170 180 194 280 270 258 261 252 246 270 266 252 262 263 259 263 259 270 270 269 269 276 283
243 236 229 228 228 231 228 224 223 216 207 188 176 173 171 171 172 174 190 199 201 211 230 244 256 259 260 266 272 274 275 269 260 258 257 264 262 250 255 257 267 273 274 273 277
222 211 201 197 198 204 207 204 203 200 199 187 187 192 203 185 207 217 223 229 244 248 255 263 271 275 277 279 279 277 268 270 269 276 268 271 275 258 256 258 262 268 268 268 277
215 186 180 172 171 170 169 171 175 177 183 184 196 202 210 214 217 225 244 252 253 257 263 266 269 275 278 276 274 270 274 270 269 267 271 270 274 274 268 258 257 277 272 268 275
280 274 249 231 208 205 204 200 204 204 203 200 216 227 224 234 247 254 245 256 261 266 266 270 278 278 273 276 275 274 271 271 270 269 271 272 275 275 272 275 272 270 279 271 273
270 274 274 274 270 263 259 259 246 244 240 240 251 260 257 257 255 262 268 268 271 269 271 274 276 274 277 276 275 274 271 270 269 266 272 271 272 270 263 265 260 268 265 270 270
271 271 270 270 270 273 271 271 264 260 263 259 262 262 265 259 256 264 268 271 271 272 269 273 272 275 274 273 271 273 276 276 272 268 267 267 265 258 247 246 248 252 267 264 266
264 263 262 263 263 268 269 267 264 268 269 270 269 269 265 266 269 264 265 269 271 268 270 276 272 275 274 270 266 267 266 270 273 279 277 270 278 255 253 240 247 251 255 265 265
264 263 260 258 262 264 266 269 271 268 268 266 266 266 263 263 261 265 264 266 267 268 273 276 272 273 276 276 266 273 275 275 280 285 288 286 285 290 268 254 246 252 256 255 255
268 267 264 264 264 263 263 265 268 270 269 264 263 265 269 273 270 266 268 269 267 268 274 273 276 280 275 270 271 274 274 280 280 285 282 284 289 285 284 268 248 245 245 249 247
269 267 268 267 266 264 263 263 264 266 271 271 269 268 271 270 270 273 270 266 270 276 276 275 274 275 277 279 275 273 282 282 277 278 282 284 284 283 282 280 268 243 243 249 250
268 270 270 270 268 268 267 265 265 266 265 271 277 281 279 266 266 270 273 275 275 272 272 274 271 273 277 280 276 281 283 275 275 278 281 276 269 272 277 278 273 264 244 260 265
276 274 271 270 269 270 269 267 264 262 264 267 271 274 275 270 270 268 274 278 274 275 276 277 280 280 283 283 284 284 279 277 275 278 284 285 285 270 271 269 270 268 262 260 255
284 277 274 271 269 268 267 265 262 265 266 268 271 273 273 269 267 269 265 265 270 274 276 277 277 279 285 289 285 282 281 278 274 277 281 284 287 285 283 282 273 265 269 276 256
289 286 282 278 274 272 270 269 270 270 269 268 266 267 267 264 263 263 266 270 271 272 274 275 278 281 280 279 280 276 276 278 279 276 279 285 285 284 278 280 268 264 269 277 274
289 286 285 280 278 275 275 271 268 271 272 267 261 258 260 262 266 264 264 266 269 271 274 276 279 280 281 281 280 275 272 272 276 280 279 280 285 285 281 278 278 279 280 276 273
301 297 291 284 281 278 273 271 268 267 267 271 267 261 259 260 261 261 262 262 262 264 265 269 273 276 278 280 281 277 275 271 270 272 276 279 287 285 283 282 276 276 276 278 277
299 296 296 292 287 284 282 279 276 273 267 263 266 268 267 265 266 266 263 261 263 266 267 268 268 270 273 276 277 279 278 274 273 274 280 280 286 282 282 281 278 278 277 275 275
300 299 297 296 295 291 285 278 270 270 275 274 271 271 272 273 269 267 270 270 266 267 268 269 272 274 275 277 278 279 277 274 273 276 279 284 281 282 279 278 279 279 281 288 286
299 298 296 295 292 289 289 288 285 280 276 268 271 270 269 272 272 271 269 268 269 271 271 271 272 272 273 274 274 274 273 273 276 275 277 279 282 288 288 284 284 287 294 292 290
298 294 291 290 290 289 287 284 279 279 278 280 277 273 271 269 270 271 271 270 269 270 271 272 272 271 271 274 273 272 278 277 274 271 275 278 283 286 288 285 283 286 289 292 293